| time (UTC) | temp F | wind direction | speed MPH | gust MPH | rain 1hr in | rain 24hr in | rain mn in | humidity % | barometer mb |
| 20260831214004 | 97 | 101 | 1.0 | 6.0 | 0.00 | 0.00 | 0.00 | 43 | 1014.7 |
| 20260831213504 | 96 | 100 | 2.0 | 6.0 | 0.00 | 0.00 | 0.00 | 43 | 1014.7 |
| 20260831213004 | 96 | 107 | 2.0 | 6.0 | 0.00 | 0.00 | 0.00 | 45 | 1014.8 |
| 20260831212504 | 97 | 115 | 1.0 | 5.0 | 0.00 | 0.00 | 0.00 | 44 | 1014.8 |
| 20260831211505 | 97 | 99 | 1.0 | 4.0 | 0.00 | 0.00 | 0.00 | 42 | 1014.9 |
| 20260831211004 | 97 | 100 | 1.0 | 3.0 | 0.00 | 0.00 | 0.00 | 44 | 1015.0 |
| 20260831210504 | 97 | 96 | 1.0 | 5.0 | 0.00 | 0.00 | 0.00 | 43 | 1015.1 |
| 20260831210004 | 98 | 104 | 2.0 | 6.0 | 0.00 | 0.00 | 0.00 | 42 | 1015.1 |
| 20260831205504 | 99 | 124 | 1.0 | 6.0 | 0.00 | 0.00 | 0.00 | 43 | 1015.2 |
| 20260831204004 | 97 | 99 | 2.0 | 6.0 | 0.00 | 0.00 | 0.00 | 44 | 1015.5 |
| 20260831203504 | 97 | 112 | 2.0 | 7.0 | 0.00 | 0.00 | 0.00 | 44 | 1015.7 |
| 20260831203004 | 97 | 113 | 1.0 | 7.0 | 0.00 | 0.00 | 0.00 | 45 | 1015.7 |
| 20260831202504 | 97 | 103 | 2.0 | 7.0 | 0.00 | 0.00 | 0.00 | 44 | 1015.8 |
| 20260831202004 | 96 | 119 | 1.0 | 7.0 | 0.00 | 0.00 | 0.00 | 45 | 1015.9 |
| 20260831201004 | 96 | 125 | 1.0 | 4.0 | 0.00 | 0.00 | 0.00 | 46 | 1016.1 |
| 20260831200503 | 96 | 127 | 1.0 | 4.0 | 0.00 | 0.00 | 0.00 | 46 | 1016.2 |
| 20260831200004 | 96 | 130 | 1.0 | 4.0 | 0.00 | 0.00 | 0.00 | 46 | 1016.2 |
| 20260831195504 | 96 | 125 | 1.0 | 6.0 | 0.00 | 0.00 | 0.00 | 46 | 1016.2 |
| 20260831195005 | 96 | 109 | 2.0 | 6.0 | 0.00 | 0.00 | 0.00 | 44 | 1016.3 |
| 20260831193004 | 96 | 136 | 1.0 | 5.0 | 0.00 | 0.00 | 0.00 | 47 | 1016.6 |
| 20260831192504 | 97 | 126 | 1.0 | 5.0 | 0.00 | 0.00 | 0.00 | 46 | 1016.7 |
| 20260831192004 | 97 | 160 | 1.0 | 4.0 | 0.00 | 0.00 | 0.00 | 48 | 1016.7 |
| 20260831191504 | 97 | 183 | 1.0 | 4.0 | 0.00 | 0.00 | 0.00 | 47 | 1016.7 |
| 20260831191003 | 96 | 151 | 1.0 | 5.0 | 0.00 | 0.00 | 0.00 | 49 | 1016.8 |
| 20260831190504 | 96 | 103 | 1.0 | 5.0 | 0.00 | 0.00 | 0.00 | 50 | 1016.9 |
| 20260831185003 | 96 | 169 | 1.0 | 4.0 | 0.00 | 0.00 | 0.00 | 48 | 1017.3 |
| 20260831184504 | 96 | 203 | 1.0 | 4.0 | 0.00 | 0.00 | 0.00 | 50 | 1017.2 |
| 20260831183504 | 95 | 170 | 1.0 | 4.0 | 0.00 | 0.00 | 0.00 | 49 | 1017.3 |
| 20260831183004 | 95 | 190 | 1.0 | 3.0 | 0.00 | 0.00 | 0.00 | 53 | 1017.3 |
| 20260831182504 | 94 | 192 | 1.0 | 4.0 | 0.00 | 0.00 | 0.00 | 51 | 1017.3 |
| 20260831182004 | 95 | 170 | 1.0 | 5.0 | 0.00 | 0.00 | 0.00 | 54 | 1017.4 |
| 20260831181504 | 95 | 118 | 1.0 | 5.0 | 0.00 | 0.00 | 0.00 | 53 | 1017.4 |
| 20260831181003 | 95 | 83 | 2.0 | 7.0 | 0.00 | 0.00 | 0.00 | 52 | 1017.4 |
| 20260831180504 | 94 | 93 | 2.0 | 7.0 | 0.00 | 0.00 | 0.00 | 52 | 1017.4 |
| 20260831180004 | 94 | 141 | 1.0 | 6.0 | 0.00 | 0.00 | 0.00 | 55 | 1017.5 |
| 20260831175504 | 94 | 170 | 1.0 | 4.0 | 0.00 | 0.00 | 0.00 | 56 | 1017.6 |
| 20260831175003 | 94 | 174 | 1.0 | 7.0 | 0.00 | 0.00 | 0.00 | 56 | 1017.7 |
| 20260831174504 | 93 | 147 | 1.0 | 7.0 | 0.00 | 0.00 | 0.00 | 56 | 1017.8 |
| 20260831174004 | 93 | 103 | 1.0 | 5.0 | 0.00 | 0.00 | 0.00 | 56 | 1017.9 |
| 20260831173504 | 92 | 91 | 2.0 | 5.0 | 0.00 | 0.00 | 0.00 | 57 | 1017.9 |
| 20260831173004 | 92 | 123 | 2.0 | 7.0 | 0.00 | 0.00 | 0.00 | 57 | 1018.0 |
| 20260831172504 | 93 | 124 | 1.0 | 7.0 | 0.00 | 0.00 | 0.00 | 55 | 1018.0 |
| 20260831172004 | 92 | 85 | 2.0 | 6.0 | 0.00 | 0.00 | 0.00 | 58 | 1018.0 |
| 20260831170504 | 92 | 171 | 2.0 | 4.0 | 0.00 | 0.00 | 0.00 | 60 | 1018.3 |
| 20260831170004 | 92 | 216 | 1.0 | 5.0 | 0.00 | 0.00 | 0.00 | 62 | 1018.3 |
| 20260831165503 | 92 | 211 | 1.0 | 5.0 | 0.00 | 0.00 | 0.00 | 62 | 1018.3 |
| 20260831164504 | 91 | 217 | 1.0 | 4.0 | 0.00 | 0.00 | 0.00 | 64 | 1018.3 |
| 20260831164004 | 91 | 227 | 1.0 | 4.0 | 0.00 | 0.00 | 0.00 | 63 | 1018.3 |
| 20260831163503 | 90 | 268 | 1.0 | 6.0 | 0.00 | 0.00 | 0.00 | 63 | 1018.2 |
| 20260831163004 | 90 | 233 | 1.0 | 6.0 | 0.00 | 0.00 | 0.00 | 62 | 1018.2 |
| 20260831162504 | 90 | 183 | 1.0 | 5.0 | 0.00 | 0.00 | 0.00 | 63 | 1018.3 |
| 20260831161503 | 89 | 202 | 1.0 | 4.0 | 0.00 | 0.00 | 0.00 | 65 | 1018.3 |
| 20260831160004 | 88 | 225 | 1.0 | 6.0 | 0.00 | 0.00 | 0.00 | 67 | 1018.3 |
| 20260831155504 | 88 | 183 | 1.0 | 6.0 | 0.00 | 0.00 | 0.00 | 67 | 1018.2 |
| 20260831155004 | 88 | 117 | 1.0 | 7.0 | 0.00 | 0.00 | 0.00 | 68 | 1018.3 |
| 20260831154504 | 88 | 116 | 1.0 | 7.0 | 0.00 | 0.00 | 0.00 | 66 | 1018.2 |
| 20260831153503 | 88 | 140 | 1.0 | 3.0 | 0.00 | 0.00 | 0.00 | 73 | 1018.3 |
| 20260831153004 | 87 | 140 | 1.0 | 4.0 | 0.00 | 0.00 | 0.00 | 72 | 1018.2 |
| 20260831152504 | 87 | 139 | 1.0 | 4.0 | 0.00 | 0.00 | 0.00 | 73 | 1018.2 |
| 20260831151503 | 86 | 136 | 1.0 | 4.0 | 0.00 | 0.00 | 0.00 | 75 | 1018.1 |
| 20260831151004 | 86 | 169 | 1.0 | 4.0 | 0.00 | 0.00 | 0.00 | 76 | 1018.1 |
| 20260831150504 | 85 | 196 | 1.0 | 5.0 | 0.00 | 0.00 | 0.00 | 77 | 1018.1 |
| 20260831150004 | 85 | 199 | 1.0 | 5.0 | 0.00 | 0.00 | 0.00 | 80 | 1018.0 |
| 20260831145504 | 84 | 190 | 1.0 | 5.0 | 0.00 | 0.00 | 0.00 | 81 | 1018.0 |
| 20260831145004 | 83 | 182 | 1.0 | 4.0 | 0.00 | 0.00 | 0.00 | 81 | 1017.9 |
| 20260831144504 | 83 | 177 | 1.0 | 5.0 | 0.00 | 0.00 | 0.00 | 81 | 1018.0 |
| 20260831143503 | 83 | 203 | 1.0 | 6.0 | 0.00 | 0.00 | 0.00 | 80 | 1017.9 |
| 20260831143004 | 83 | 200 | 1.0 | 6.0 | 0.00 | 0.00 | 0.00 | 82 | 1017.8 |
| 20260831142504 | 83 | 189 | 1.0 | 4.0 | 0.00 | 0.00 | 0.00 | 83 | 1017.8 |
| 20260831142004 | 82 | 0 | 0.0 | 3.0 | 0.00 | 0.00 | 0.00 | 84 | 1017.9 |
| 20260831141503 | 82 | 189 | 1.0 | 3.0 | 0.00 | 0.00 | 0.00 | 84 | 1017.9 |
| 20260831141004 | 82 | 189 | 1.0 | 3.0 | 0.00 | 0.00 | 0.00 | 85 | 1017.8 |
| 20260831140504 | 82 | 189 | 1.0 | 5.0 | 0.00 | 0.00 | 0.00 | 86 | 1017.7 |
| 20260831140004 | 81 | 0 | 0.0 | 5.0 | 0.00 | 0.00 | 0.00 | 86 | 1017.7 |
| 20260831135503 | 81 | 189 | 1.0 | 4.0 | 0.00 | 0.00 | 0.00 | 88 | 1017.6 |
| 20260831134504 | 80 | 0 | 0.0 | 3.0 | 0.00 | 0.00 | 0.00 | 89 | 1017.6 |
| 20260831134004 | 79 | 0 | 0.0 | 4.0 | 0.00 | 0.00 | 0.00 | 89 | 1017.5 |
| 20260831133503 | 79 | 0 | 0.0 | 4.0 | 0.00 | 0.00 | 0.00 | 89 | 1017.4 |
| 20260831133004 | 79 | 0 | 0.0 | 3.0 | 0.00 | 0.00 | 0.00 | 89 | 1017.5 |
| 20260831132504 | 79 | 189 | 1.0 | 4.0 | 0.00 | 0.00 | 0.00 | 90 | 1017.4 |
| 20260831132005 | 78 | 189 | 1.0 | 4.0 | 0.00 | 0.00 | 0.00 | 90 | 1017.4 |
| 20260831131504 | 78 | 0 | 0.0 | 3.0 | 0.00 | 0.00 | 0.00 | 90 | 1017.4 |
| 20260831131004 | 78 | 0 | 0.0 | 3.0 | 0.00 | 0.00 | 0.00 | 90 | 1017.3 |
| 20260831130504 | 78 | 0 | 0.0 | 3.0 | 0.00 | 0.00 | 0.00 | 90 | 1017.2 |
| 20260831130004 | 78 | 0 | 0.0 | 2.0 | 0.00 | 0.00 | 0.00 | 90 | 1017.2 |
| 20260831125504 | 78 | 0 | 0.0 | 3.0 | 0.00 | 0.00 | 0.00 | 90 | 1017.2 |
| 20260831125004 | 78 | 0 | 0.0 | 3.0 | 0.00 | 0.00 | 0.00 | 90 | 1017.1 |
| 20260831124504 | 77 | 0 | 0.0 | 3.0 | 0.00 | 0.00 | 0.00 | 90 | 1017.0 |
| 20260831124003 | 77 | 0 | 0.0 | 3.0 | 0.00 | 0.00 | 0.00 | 90 | 1016.9 |
| 20260831123504 | 77 | 0 | 0.0 | 3.0 | 0.00 | 0.00 | 0.00 | 90 | 1016.9 |
| 20260831123004 | 77 | 0 | 0.0 | 3.0 | 0.00 | 0.00 | 0.00 | 90 | 1016.9 |
| 20260831122504 | 78 | 0 | 0.0 | 3.0 | 0.00 | 0.00 | 0.00 | 90 | 1016.8 |
| 20260831122004 | 78 | 0 | 0.0 | 3.0 | 0.00 | 0.00 | 0.00 | 90 | 1017.0 |
| 20260831121504 | 78 | 0 | 0.0 | 4.0 | 0.00 | 0.00 | 0.00 | 90 | 1017.0 |
| 20260831121004 | 78 | 0 | 0.0 | 4.0 | 0.00 | 0.00 | 0.00 | 90 | 1016.9 |
| 20260831120504 | 78 | 0 | 0.0 | 3.0 | 0.00 | 0.00 | 0.00 | 89 | 1016.9 |
| 20260831120003 | 78 | 0 | 0.0 | 2.0 | 0.00 | 0.00 | 0.00 | 89 | 1016.8 |
| 20260831115504 | 78 | 0 | 0.0 | 2.0 | 0.00 | 0.00 | 0.00 | 89 | 1016.8 |
| 20260831114504 | 78 | 0 | 0.0 | 4.0 | 0.00 | 0.00 | 0.00 | 89 | 1016.8 |
| 20260831114003 | 78 | 0 | 0.0 | 4.0 | 0.00 | 0.00 | 0.00 | 89 | 1016.8 |
| 20260831113004 | 78 | 187 | 1.0 | 6.0 | 0.00 | 0.00 | 0.00 | 89 | 1016.8 |
| 20260831112504 | 78 | 0 | 0.0 | 3.0 | 0.00 | 0.00 | 0.00 | 89 | 1016.8 |
| 20260831112003 | 78 | 0 | 0.0 | 2.0 | 0.00 | 0.00 | 0.00 | 89 | 1016.8 |
| 20260831111503 | 78 | 0 | 0.0 | 2.0 | 0.00 | 0.00 | 0.00 | 89 | 1016.7 |
| 20260831111004 | 78 | 0 | 0.0 | 6.0 | 0.00 | 0.00 | 0.00 | 89 | 1016.7 |
| 20260831105503 | 78 | 193 | 1.0 | 5.0 | 0.00 | 0.00 | 0.00 | 89 | 1016.5 |
| 20260831105003 | 78 | 196 | 1.0 | 5.0 | 0.00 | 0.00 | 0.00 | 89 | 1016.6 |
| 20260831104504 | 78 | 198 | 1.0 | 4.0 | 0.00 | 0.00 | 0.00 | 89 | 1016.7 |
| 20260831104004 | 78 | 0 | 0.0 | 3.0 | 0.00 | 0.00 | 0.00 | 89 | 1016.6 |
| 20260831103504 | 78 | 0 | 0.0 | 2.0 | 0.00 | 0.00 | 0.00 | 89 | 1016.6 |
| 20260831103003 | 78 | 0 | 0.0 | 3.0 | 0.00 | 0.00 | 0.00 | 88 | 1016.7 |
| 20260831102504 | 78 | 196 | 1.0 | 5.0 | 0.00 | 0.00 | 0.00 | 88 | 1016.6 |
| 20260831102004 | 78 | 195 | 1.0 | 5.0 | 0.00 | 0.00 | 0.00 | 88 | 1016.6 |
| 20260831101503 | 78 | 194 | 1.0 | 5.0 | 0.00 | 0.00 | 0.00 | 88 | 1016.7 |
| 20260831101004 | 78 | 193 | 1.0 | 4.0 | 0.00 | 0.00 | 0.00 | 88 | 1016.8 |
| 20260831100004 | 78 | 0 | 0.0 | 3.0 | 0.00 | 0.00 | 0.00 | 88 | 1016.7 |
| 20260831095004 | 78 | 0 | 0.0 | 3.0 | 0.00 | 0.00 | 0.00 | 88 | 1016.7 |
| 20260831094004 | 78 | 0 | 0.0 | 4.0 | 0.00 | 0.00 | 0.00 | 88 | 1016.7 |
| 20260831093503 | 78 | 0 | 0.0 | 3.0 | 0.00 | 0.00 | 0.00 | 88 | 1016.6 |
| 20260831093003 | 78 | 0 | 0.0 | 3.0 | 0.00 | 0.00 | 0.00 | 88 | 1016.6 |
| 20260831092504 | 78 | 0 | 0.0 | 4.0 | 0.00 | 0.00 | 0.00 | 88 | 1016.5 |
| 20260831091504 | 78 | 208 | 1.0 | 3.0 | 0.00 | 0.00 | 0.00 | 88 | 1016.5 |
| 20260831091003 | 78 | 214 | 1.0 | 7.0 | 0.00 | 0.00 | 0.00 | 88 | 1016.4 |
| 20260831090504 | 78 | 218 | 1.0 | 7.0 | 0.00 | 0.00 | 0.00 | 88 | 1016.4 |
| 20260831085504 | 79 | 225 | 1.0 | 4.0 | 0.00 | 0.00 | 0.00 | 87 | 1016.4 |
| 20260831085004 | 79 | 224 | 1.0 | 8.0 | 0.00 | 0.00 | 0.00 | 87 | 1016.5 |
| 20260831084504 | 79 | 214 | 1.0 | 8.0 | 0.00 | 0.00 | 0.00 | 87 | 1016.4 |
| 20260831084004 | 79 | 217 | 1.0 | 5.0 | 0.00 | 0.00 | 0.00 | 87 | 1016.5 |
| 20260831083503 | 79 | 224 | 1.0 | 4.0 | 0.00 | 0.00 | 0.00 | 87 | 1016.5 |
| 20260831083004 | 79 | 219 | 1.0 | 4.0 | 0.00 | 0.00 | 0.00 | 87 | 1016.4 |
| 20260831082504 | 79 | 207 | 1.0 | 4.0 | 0.00 | 0.00 | 0.00 | 87 | 1016.5 |
| 20260831081503 | 79 | 195 | 1.0 | 4.0 | 0.00 | 0.00 | 0.00 | 86 | 1016.5 |
| 20260831081004 | 79 | 0 | 0.0 | 4.0 | 0.00 | 0.00 | 0.00 | 86 | 1016.6 |
| 20260831080504 | 80 | 209 | 1.0 | 6.0 | 0.00 | 0.00 | 0.00 | 85 | 1016.5 |
| 20260831080004 | 80 | 224 | 1.0 | 6.0 | 0.00 | 0.00 | 0.00 | 85 | 1016.5 |
| 20260831075504 | 80 | 216 | 2.0 | 7.0 | 0.00 | 0.00 | 0.00 | 84 | 1016.5 |
| 20260831074504 | 80 | 188 | 1.0 | 5.0 | 0.00 | 0.00 | 0.00 | 82 | 1016.5 |
| 20260831074003 | 80 | 188 | 1.0 | 5.0 | 0.00 | 0.00 | 0.00 | 81 | 1016.4 |
| 20260831073004 | 80 | 0 | 0.0 | 3.0 | 0.00 | 0.00 | 0.00 | 80 | 1016.5 |
| 20260831072504 | 80 | 197 | 1.0 | 5.0 | 0.00 | 0.00 | 0.00 | 80 | 1016.6 |
| 20260831071503 | 81 | 185 | 1.0 | 4.0 | 0.00 | 0.00 | 0.00 | 79 | 1016.5 |
| 20260831070504 | 81 | 0 | 0.0 | 4.0 | 0.00 | 0.00 | 0.00 | 78 | 1016.5 |
| 20260831070004 | 81 | 0 | 0.0 | 4.0 | 0.00 | 0.00 | 0.00 | 78 | 1016.6 |
| 20260831065503 | 81 | 0 | 0.0 | 3.0 | 0.00 | 0.00 | 0.00 | 78 | 1016.6 |
| 20260831065004 | 81 | 0 | 0.0 | 3.0 | 0.00 | 0.00 | 0.00 | 78 | 1016.6 |
| 20260831064504 | 81 | 0 | 0.0 | 4.0 | 0.00 | 0.00 | 0.00 | 77 | 1016.6 |
| 20260831064003 | 81 | 0 | 0.0 | 4.0 | 0.00 | 0.00 | 0.00 | 77 | 1016.8 |
| 20260831063004 | 82 | 0 | 0.0 | 0.0 | 0.00 | 0.00 | 0.00 | 77 | 1016.7 |
| 20260831062504 | 82 | 0 | 0.0 | 2.0 | 0.00 | 0.00 | 0.00 | 77 | 1016.7 |
| 20260831062003 | 82 | 0 | 0.0 | 2.0 | 0.00 | 0.00 | 0.00 | 76 | 1016.6 |
| 20260831061503 | 82 | 0 | 0.0 | 2.0 | 0.00 | 0.00 | 0.00 | 76 | 1016.7 |
| 20260831061004 | 82 | 0 | 0.0 | 0.0 | 0.00 | 0.00 | 0.00 | 75 | 1016.6 |
| 20260831060504 | 83 | 0 | 0.0 | 0.0 | 0.00 | 0.00 | 0.00 | 75 | 1016.5 |
| 20260831060004 | 83 | 0 | 0.0 | 0.0 | 0.00 | 0.00 | 0.00 | 74 | 1016.5 |
| 20260831055503 | 83 | 0 | 0.0 | 2.0 | 0.00 | 0.00 | 0.00 | 74 | 1016.6 |
| 20260831055004 | 83 | 0 | 0.0 | 2.0 | 0.00 | 0.00 | 0.00 | 73 | 1016.5 |
| 20260831054504 | 83 | 0 | 0.0 | 2.0 | 0.00 | 0.00 | 0.00 | 73 | 1016.4 |
| 20260831054003 | 84 | 0 | 0.0 | 4.0 | 0.00 | 0.00 | 0.00 | 73 | 1016.4 |
| 20260831053503 | 84 | 241 | 1.0 | 4.0 | 0.00 | 0.00 | 0.00 | 72 | 1016.4 |
| 20260831053004 | 84 | 0 | 0.0 | 3.0 | 0.00 | 0.00 | 0.00 | 72 | 1016.4 |
| 20260831052004 | 84 | 207 | 1.0 | 6.0 | 0.00 | 0.00 | 0.00 | 71 | 1016.3 |
| 20260831051004 | 84 | 214 | 1.0 | 6.0 | 0.00 | 0.00 | 0.00 | 70 | 1016.2 |
| 20260831050504 | 84 | 0 | 0.0 | 4.0 | 0.00 | 0.00 | 0.00 | 69 | 1016.1 |
| 20260831050004 | 85 | 0 | 0.0 | 4.0 | 0.00 | 0.00 | 0.00 | 69 | 1016.2 |
| 20260831045504 | 85 | 0 | 0.0 | 5.0 | 0.00 | 0.00 | 0.00 | 68 | 1016.2 |
| 20260831045003 | 85 | 227 | 1.0 | 5.0 | 0.00 | 0.00 | 0.00 | 68 | 1016.1 |
| 20260831044504 | 85 | 232 | 1.0 | 5.0 | 0.00 | 0.00 | 0.00 | 68 | 1016.1 |
| 20260831044004 | 85 | 214 | 1.0 | 5.0 | 0.00 | 0.00 | 0.00 | 67 | 1016.0 |
| 20260831043504 | 85 | 191 | 1.0 | 4.0 | 0.00 | 0.00 | 0.00 | 67 | 1016.1 |
| 20260831043004 | 85 | 202 | 1.0 | 7.0 | 0.00 | 0.00 | 0.00 | 66 | 1016.1 |
| 20260831042504 | 86 | 214 | 1.0 | 7.0 | 0.00 | 0.00 | 0.00 | 66 | 1016.1 |
| 20260831042003 | 86 | 218 | 1.0 | 4.0 | 0.00 | 0.00 | 0.00 | 65 | 1016.0 |
| 20260831041503 | 86 | 214 | 1.0 | 5.0 | 0.00 | 0.00 | 0.00 | 65 | 1016.1 |
| 20260831041004 | 86 | 212 | 1.0 | 9.0 | 0.00 | 0.00 | 0.00 | 64 | 1016.1 |
| 20260831040504 | 86 | 210 | 1.0 | 9.0 | 0.00 | 0.00 | 0.00 | 64 | 1016.1 |
| 20260831040004 | 86 | 207 | 1.0 | 6.0 | 0.00 | 0.00 | 0.00 | 64 | 1016.1 |
| 20260831035504 | 86 | 203 | 1.0 | 4.0 | 0.00 | 0.00 | 0.00 | 64 | 1016.0 |
| 20260831035004 | 86 | 168 | 1.0 | 6.0 | 0.00 | 0.00 | 0.00 | 64 | 1016.0 |
| 20260831034504 | 86 | 101 | 1.0 | 8.0 | 0.00 | 0.00 | 0.00 | 64 | 1016.0 |
| 20260831034003 | 86 | 84 | 1.0 | 8.0 | 0.00 | 0.00 | 0.00 | 64 | 1015.9 |
| 20260831033504 | 86 | 86 | 1.0 | 5.0 | 0.00 | 0.00 | 0.00 | 64 | 1015.8 |
| 20260831033004 | 87 | 103 | 1.0 | 7.0 | 0.00 | 0.00 | 0.00 | 64 | 1015.7 |
| 20260831032003 | 87 | 107 | 2.0 | 5.0 | 0.00 | 0.00 | 0.00 | 63 | 1015.6 |
| 20260831031504 | 87 | 219 | 2.0 | 6.0 | 0.00 | 0.00 | 0.00 | 63 | 1015.5 |
| 20260831031004 | 87 | 199 | 2.0 | 6.0 | 0.00 | 0.00 | 0.00 | 63 | 1015.5 |
| 20260831030503 | 87 | 100 | 2.0 | 7.0 | 0.00 | 0.00 | 0.00 | 63 | 1015.4 |
| 20260831030004 | 87 | 105 | 2.0 | 7.0 | 0.00 | 0.00 | 0.00 | 63 | 1015.3 |
| 20260831025504 | 87 | 102 | 2.0 | 9.0 | 0.00 | 0.00 | 0.00 | 62 | 1015.3 |
| 20260831025004 | 88 | 118 | 1.0 | 9.0 | 0.00 | 0.00 | 0.00 | 63 | 1015.2 |
| 20260831024503 | 88 | 225 | 1.0 | 3.0 | 0.00 | 0.00 | 0.00 | 63 | 1015.1 |
| 20260831024004 | 88 | 226 | 1.0 | 3.0 | 0.00 | 0.00 | 0.00 | 63 | 1015.1 |
| 20260831023504 | 88 | 124 | 1.0 | 5.0 | 0.00 | 0.00 | 0.00 | 63 | 1015.1 |
| 20260831023003 | 88 | 117 | 2.0 | 5.0 | 0.00 | 0.00 | 0.00 | 62 | 1015.0 |
| 20260831022503 | 88 | 137 | 1.0 | 5.0 | 0.00 | 0.00 | 0.00 | 61 | 1014.9 |
| 20260831021003 | 89 | 138 | 2.0 | 7.0 | 0.00 | 0.00 | 0.00 | 58 | 1014.6 |
| 20260831020503 | 89 | 143 | 2.0 | 7.0 | 0.00 | 0.00 | 0.00 | 57 | 1014.5 |
| 20260831015504 | 89 | 95 | 1.0 | 9.0 | 0.00 | 0.00 | 0.00 | 54 | 1014.3 |
| 20260831015003 | 89 | 0 | 0.0 | 1.0 | 0.00 | 0.00 | 0.00 | 51 | 1014.2 |
| 20260831014504 | 89 | 0 | 0.0 | 0.0 | 0.00 | 0.00 | 0.00 | 51 | 1014.0 |
| 20260831014004 | 90 | 0 | 0.0 | 0.0 | 0.00 | 0.00 | 0.00 | 51 | 1013.9 |
| 20260831013503 | 90 | 0 | 0.0 | 1.0 | 0.00 | 0.00 | 0.00 | 50 | 1013.9 |
| 20260831013003 | 90 | 0 | 0.0 | 1.0 | 0.00 | 0.00 | 0.00 | 50 | 1013.8 |
| 20260831012004 | 91 | 101 | 1.0 | 5.0 | 0.00 | 0.00 | 0.00 | 49 | 1013.7 |
| 20260831011504 | 91 | 0 | 0.0 | 5.0 | 0.00 | 0.00 | 0.00 | 49 | 1013.7 |
| 20260831011003 | 91 | 0 | 0.0 | 3.0 | 0.00 | 0.00 | 0.00 | 50 | 1013.7 |
| 20260831010504 | 91 | 0 | 0.0 | 3.0 | 0.00 | 0.00 | 0.00 | 49 | 1013.8 |
| 20260831010004 | 92 | 0 | 0.0 | 3.0 | 0.00 | 0.00 | 0.00 | 49 | 1013.8 |
| 20260831005004 | 92 | 0 | 0.0 | 1.0 | 0.00 | 0.00 | 0.00 | 49 | 1013.7 |
| 20260831004504 | 92 | 0 | 0.0 | 0.0 | 0.00 | 0.00 | 0.00 | 49 | 1013.7 |
| 20260831004004 | 92 | 0 | 0.0 | 2.0 | 0.00 | 0.00 | 0.00 | 49 | 1013.7 |
| 20260831003503 | 93 | 0 | 0.0 | 2.0 | 0.00 | 0.00 | 0.00 | 48 | 1013.7 |
| 20260831001503 | 93 | 0 | 0.0 | 3.0 | 0.00 | 0.00 | 0.00 | 47 | 1013.6 |
| 20260831001003 | 93 | 0 | 0.0 | 2.0 | 0.00 | 0.00 | 0.00 | 47 | 1013.5 |
| 20260831000504 | 93 | 0 | 0.0 | 2.0 | 0.00 | 0.00 | 0.00 | 47 | 1013.6 |
| 20260830235503 | 94 | 98 | 1.0 | 6.0 | 0.00 | 0.00 | 0.00 | 45 | 1013.6 |
| 20260830235003 | 94 | 97 | 1.0 | 6.0 | 0.00 | 0.00 | 0.00 | 44 | 1013.6 |
| 20260830234504 | 95 | 93 | 1.0 | 5.0 | 0.00 | 0.00 | 0.00 | 43 | 1013.6 |
| 20260830234004 | 95 | 90 | 1.0 | 5.0 | 0.00 | 0.00 | 0.00 | 43 | 1013.7 |
| 20260830233503 | 96 | 88 | 2.0 | 6.0 | 0.00 | 0.00 | 0.00 | 43 | 1013.6 |
| 20260830232504 | 96 | 113 | 2.0 | 7.0 | 0.00 | 0.00 | 0.00 | 43 | 1013.6 |
| 20260830232003 | 97 | 108 | 2.0 | 7.0 | 0.00 | 0.00 | 0.00 | 42 | 1013.6 |
| 20260830231503 | 97 | 109 | 1.0 | 5.0 | 0.00 | 0.00 | 0.00 | 43 | 1013.6 |
| 20260830231004 | 96 | 117 | 1.0 | 5.0 | 0.00 | 0.00 | 0.00 | 42 | 1013.6 |
| 20260830230004 | 97 | 137 | 1.0 | 4.0 | 0.00 | 0.00 | 0.00 | 42 | 1013.5 |
| 20260830225004 | 97 | 117 | 1.0 | 6.0 | 0.00 | 0.00 | 0.00 | 41 | 1013.7 |
| 20260830224504 | 98 | 112 | 1.0 | 6.0 | 0.00 | 0.00 | 0.00 | 41 | 1013.7 |
| 20260830224003 | 98 | 170 | 1.0 | 3.0 | 0.00 | 0.00 | 0.00 | 41 | 1013.8 |
| 20260830223004 | 97 | 191 | 1.0 | 3.0 | 0.00 | 0.00 | 0.00 | 40 | 1013.7 |
| 20260830222504 | 97 | 192 | 1.0 | 3.0 | 0.00 | 0.00 | 0.00 | 42 | 1013.8 |
| 20260830221503 | 98 | 193 | 1.0 | 4.0 | 0.00 | 0.00 | 0.00 | 41 | 1013.9 |
| 20260830220504 | 98 | 129 | 1.0 | 4.0 | 0.00 | 0.00 | 0.00 | 41 | 1013.9 |
| 20260830220003 | 98 | 110 | 1.0 | 5.0 | 0.00 | 0.00 | 0.00 | 42 | 1013.9 |
| 20260830215504 | 97 | 106 | 2.0 | 7.0 | 0.00 | 0.00 | 0.00 | 44 | 1014.0 |
| 20260830215004 | 97 | 100 | 1.0 | 7.0 | 0.00 | 0.00 | 0.00 | 44 | 1014.0 |